Location: ????????
(55.6333°N, 37.7000°E)
Time: 02:41:06
(UTC+00:00)

NOSS 2-1 (D) - Pass Details

Date: 19 May 2025
Orbit: 378 x 1697 km, 63.3° (Epoch: 13 June)

Event Time Altitude Azimuth Distance (km) Brightness Sun altitude
Exits shadow 20:47:54 27° 192° (SSW) 815 3.7 -14.0°
Maximum altitude 20:49:13 46° 135° (SE) 542 2.9 -14.0°
Drops below altitude 10° 20:52:05 10° 60° (ENE) 1,404 5.7 -14.1°
Sets 20:54:06 0° 54° (NE) 2,271 6.9 -14.1°
